Weather History for Missoula, MT

Change the Weather History Date:

Friday, January 4, 2013

  Actual Average Record
Temperature  
Mean Temperature 13 °F 24 °F  
Max Temperature 22 °F 31 °F 51 °F (1918)
Min Temperature 4 °F 17 °F -19 °F (1949)
Degree Days  
Heating Degree Days 52 41  
Month to date heating degree days 199 164  
Since 1 July heating degree days 2981 3336  
Cooling Degree Days 0 0  
Month to date cooling degree days 0 0  
Year to date cooling degree days 0 0  
Moisture  
Dew Point 10 °F    
Average Humidity 82    
Maximum Humidity 92    
Minimum Humidity 71    
Precipitation  
Precipitation T in 0.03 in 0.70 in (1907)
Month to date precipitation T 0.12  
Year to date precipitation T 0.12  
Snow  
Snow 0.10 in - - ()
Month to date snowfall 0.1  
Year to date snowfall 0.1  
Since 1 July snowfall 21.2  
Snow Depth 3.00 in    
Sea Level Pressure  
Sea Level Pressure 30.49 in    
Wind  
Wind Speed 0 mph (West)    
Max Wind Speed 6 mph    
Max Gust Speed 7 mph    
Visibility 8 miles    
Events Snow    
T = Trace of Precipitation, MM = Missing Value Source: NWS Daily Summary

Daily Weather History Graph

Daily Weather History Graph

Search for Another Location

Airport:

Trip Planner

Search our weather history database for the weather conditions in past years. The results will help you decide how hot, cold, wet, or windy it might be!

Date:

Astronomy

Jan. 04, 2013 Rise Set
Actual Time 8:21 AM MST 5:01 PM MST
Civil Twilight 7:46 AM MST 5:36 PM MST
Nautical Twilight 7:08 AM MST 6:15 PM MST
Astronomical Twilight 6:31 AM MST 6:51 PM MST
Moon 12:08 AM MST (1/4) 11:36 AM MST (1/4)
Length of Visible Light 9h 50m
Length of Day
8h 40m
Waning Gibbous, 54% of the Moon is Illuminated
Jan 4
Waning Gibbous
Jan 4
Last Quarter
Jan 11
New
Jan 18
First Quarter
Jan 26
Full

Hourly Weather History & Observations

Time (MST) Temp. Windchill Dew Point Humidity Pressure Visibility Wind Dir Wind Speed Gust Speed Precip Events Conditions
12:53 AM 9.0 °F - 5.0 °F 84% 30.51 in 10.0 mi Calm Calm - N/A   Clear
1:53 AM 7.0 °F - 3.9 °F 87% 30.52 in 4.0 mi Calm Calm - N/A   Clear
2:53 AM 7.0 °F - 3.9 °F 87% 30.54 in 10.0 mi Calm Calm - N/A   Overcast
3:53 AM 7.0 °F - 3.0 °F 84% 30.53 in 10.0 mi Calm Calm - N/A   Overcast
4:53 AM 7.0 °F - 3.9 °F 87% 30.54 in 8.0 mi Calm Calm - N/A   Partly Cloudy
5:53 AM 6.1 °F - 3.0 °F 87% 30.54 in 7.0 mi Calm Calm - N/A   Clear
6:53 AM 6.1 °F - 1.9 °F 83% 30.54 in 10.0 mi Calm Calm - N/A   Scattered Clouds
7:53 AM 8.1 °F - 6.1 °F 92% 30.54 in 9.0 mi Calm Calm - 0.00 in   Overcast
8:53 AM 10.0 °F - 7.0 °F 87% 30.54 in 7.0 mi Calm Calm - 0.00 in   Overcast
9:53 AM 10.9 °F - 9.0 °F 92% 30.55 in 8.0 mi Calm Calm - N/A   Overcast
10:53 AM 12.9 °F - 9.0 °F 84% 30.56 in 8.0 mi Calm Calm - N/A   Overcast
11:53 AM 15.1 °F - 10.9 °F 84% 30.52 in 8.0 mi Calm Calm - N/A   Overcast
12:53 PM 16.0 °F - 10.9 °F 81% 30.50 in 10.0 mi Calm Calm - N/A   Overcast
1:53 PM 18.0 °F 11.1 °F 12.0 °F 78% 30.50 in 10.0 mi West 4.6 mph - N/A   Overcast
2:53 PM 18.0 °F - 12.9 °F 81% 30.49 in 8.0 mi Calm Calm - N/A   Overcast
3:53 PM 19.0 °F - 12.9 °F 77% 30.48 in 9.0 mi Calm Calm - N/A   Overcast
4:53 PM 19.9 °F - 14.0 °F 78% 30.48 in 9.0 mi Calm Calm - N/A   Overcast
5:53 PM 19.9 °F - 14.0 °F 78% 30.49 in 10.0 mi Calm Calm - N/A   Overcast
6:53 PM 21.0 °F - 14.0 °F 74% 30.49 in 9.0 mi Calm Calm - N/A   Overcast
7:53 PM 21.0 °F - 14.0 °F 74% 30.48 in 10.0 mi Calm Calm - N/A   Overcast
8:50 PM 21.2 °F - 15.8 °F 80% 30.30 in 7.0 mi Calm Calm - 0.00 in   Overcast
8:53 PM 21.0 °F - 16.0 °F 81% 30.47 in 6.0 mi Calm Calm - 0.00 in Snow Light Snow
9:00 PM 21.2 °F - 15.8 °F 80% 30.30 in 7.0 mi Calm Calm - 0.00 in Snow Light Snow
9:15 PM 17.6 °F 9.3 °F 14.0 °F 86% 30.30 in 10.0 mi West 5.8 mph - N/A   Mostly Cloudy
9:53 PM 19.9 °F - 14.0 °F 78% 30.47 in 10.0 mi Calm Calm - 0.00 in   Mostly Cloudy
10:53 PM 19.9 °F - 16.0 °F 85% 30.47 in 10.0 mi Calm Calm - N/A   Overcast
11:53 PM 16.0 °F 10.4 °F 12.9 °F 88% 30.48 in 7.0 mi WNW 3.5 mph - N/A   Clear